Moody, TX

5:24 PM CDT on July 29, 2016 (GMT -0500)
McGregor Executive

Weather History for KPWG - July, 2014

Change the Weather History Date:

Monday, July 14, 2014

  Actual Average Record
Temperature  
Mean Temperature 86 °F -  
Max Temperature 102 °F 91 °F 104 °F (2011)
Min Temperature 71 °F 71 °F 68 °F (2013)
Cooling Degree Days 22    
Growing Degree Days 36 (Base 50)    
Moisture  
Dew Point 64 °F    
Average Humidity 50    
Maximum Humidity 78    
Minimum Humidity 26    
Precipitation  
Precipitation 0.00 in - - ()
Sea Level Pressure  
Sea Level Pressure 30.00 in    
Wind  
Wind Speed 7 mph (South)    
Max Wind Speed 13 mph    
Max Gust Speed 18 mph    
Visibility 10 miles    
Events      
Averages and records for this station are not official NWS values.
T = Trace of Precipitation, MM = Missing Value Source: NWS Daily Summary

Daily Weather History Graph

Daily Weather History Graph

Search for Another Location

Airport or City:

Trip Planner

Search our weather history database for the weather conditions in past years. The results will help you decide how hot, cold, wet, or windy it might be!

Date:

Astronomy

Jul. 14, 2014 Rise Set
Actual Time 6:34 AM CDT 8:35 PM CDT
Civil Twilight 6:07 AM CDT 9:02 PM CDT
Nautical Twilight 5:33 AM CDT 9:36 PM CDT
Astronomical Twilight 4:58 AM CDT 10:11 PM CDT
Moon 10:21 PM CDT (7/14) 9:06 AM CDT (7/14)
Length of Visible Light 14h 55m
Length of Day
14h 01m
Waning Gibbous, 93% of the Moon is Illuminated
Jul 14
Waning Gibbous
Jul 18
Last Quarter
Jul 26
New
Aug 3
First Quarter
Aug 10
Full

Hourly Weather History & Observations

Time (CDT) Temp. Heat Index Dew Point Humidity Pressure Visibility Wind Dir Wind Speed Gust Speed Precip Events Conditions
12:15 AM 78.8 °F - 64.4 °F 61% 30.03 in 10.0 mi South 5.8 mph - N/A   Clear
12:35 AM 78.8 °F - 64.4 °F 61% 30.03 in 10.0 mi South 8.1 mph - N/A   Clear
12:55 AM 78.8 °F - 64.4 °F 61% 30.04 in 10.0 mi South 6.9 mph - N/A   Clear
1:15 AM 78.8 °F - 64.4 °F 61% 30.03 in 10.0 mi South 8.1 mph - N/A   Clear
1:35 AM 78.8 °F - 64.4 °F 61% 30.03 in 10.0 mi South 8.1 mph - N/A   Clear
1:55 AM 77.0 °F - 64.4 °F 65% 30.02 in 10.0 mi South 8.1 mph - N/A   Clear
2:15 AM 77.0 °F - 64.4 °F 65% 30.03 in 10.0 mi South 6.9 mph - N/A   Clear
2:35 AM 77.0 °F - 64.4 °F 65% 30.03 in 10.0 mi South 6.9 mph - N/A   Clear
2:55 AM 77.0 °F - 66.2 °F 69% 30.02 in 10.0 mi South 8.1 mph - N/A   Clear
3:15 AM 77.0 °F - 66.2 °F 69% 30.02 in 10.0 mi South 8.1 mph - N/A   Clear
3:35 AM 78.8 °F - 66.2 °F 65% 30.02 in 10.0 mi South 8.1 mph - N/A   Clear
3:55 AM 78.8 °F - 66.2 °F 65% 30.03 in 10.0 mi South 9.2 mph - N/A   Clear
4:15 AM 78.8 °F - 66.2 °F 65% 30.03 in 10.0 mi SW 5.8 mph - N/A   Clear
4:35 AM 77.0 °F - 66.2 °F 69% 30.03 in 10.0 mi WSW 5.8 mph - N/A   Clear
4:55 AM 75.2 °F - 66.2 °F 73% 30.03 in 10.0 mi SW 4.6 mph - N/A   Clear
5:15 AM 75.2 °F - 66.2 °F 73% 30.03 in 10.0 mi SW 4.6 mph - N/A   Clear
5:35 AM 73.4 °F - 64.4 °F 73% 30.03 in 10.0 mi SW 5.8 mph - N/A   Clear
5:55 AM 73.4 °F - 64.4 °F 73% 30.03 in 10.0 mi South 5.8 mph - N/A   Clear
6:15 AM 73.4 °F - 64.4 °F 73% 30.04 in 10.0 mi WSW 4.6 mph - N/A   Clear
6:35 AM 71.6 °F - 64.4 °F 78% 30.04 in 10.0 mi South 6.9 mph - N/A   Clear
6:55 AM 71.6 °F - 64.4 °F 78% 30.05 in 10.0 mi South 4.6 mph - N/A   Clear
7:15 AM 73.4 °F - 66.2 °F 78% 30.04 in 10.0 mi South 3.5 mph - N/A   Clear
7:35 AM 73.4 °F - 66.2 °F 78% 30.05 in 10.0 mi South 4.6 mph - N/A   Clear
7:55 AM 75.2 °F - 68.0 °F 78% 30.05 in 10.0 mi South 5.8 mph - N/A   Clear
8:15 AM 78.8 °F - 68.0 °F 69% 30.05 in 10.0 mi SW 4.6 mph - N/A   Clear
8:55 AM 82.4 °F 85.4 °F 68.0 °F 62% 30.06 in 10.0 mi SSW 6.9 mph - N/A   Clear
9:15 AM 84.2 °F 86.6 °F 66.2 °F 55% 30.06 in 10.0 mi SW 9.2 mph - N/A   Clear
9:35 AM 84.2 °F 86.6 °F 66.2 °F 55% 30.06 in 10.0 mi SW 8.1 mph - N/A   Clear
9:55 AM 87.8 °F 90.4 °F 66.2 °F 49% 30.06 in 10.0 mi SW 10.4 mph - N/A   Clear
10:15 AM 87.8 °F 90.4 °F 66.2 °F 49% 30.05 in 10.0 mi SW 8.1 mph - N/A   Clear
10:35 AM 89.6 °F 92.2 °F 66.2 °F 46% 30.05 in 10.0 mi West 10.4 mph - N/A   Clear
10:55 AM 91.4 °F 94.0 °F 66.2 °F 43% 30.05 in 10.0 mi WSW 11.5 mph - N/A   Clear
11:15 AM 91.4 °F 94.0 °F 66.2 °F 43% 30.05 in 10.0 mi SW 12.7 mph - N/A   Clear
11:35 AM 93.2 °F 96.2 °F 66.2 °F 41% 30.04 in 10.0 mi WSW 5.8 mph - N/A   Clear
11:55 AM 93.2 °F 96.2 °F 66.2 °F 41% 30.04 in 10.0 mi SSW 8.1 mph - N/A   Clear
12:15 PM 95.0 °F 98.5 °F 66.2 °F 39% 30.04 in 10.0 mi WSW 9.2 mph - N/A   Clear
12:35 PM 96.8 °F 100.7 °F 66.2 °F 37% 30.03 in 10.0 mi WSW 9.2 mph - N/A   Clear
12:55 PM 96.8 °F 99.0 °F 64.4 °F 34% 30.02 in 8.0 mi SW 10.4 mph 17.3 mph N/A   Partly Cloudy
1:15 PM 96.8 °F 99.0 °F 64.4 °F 34% 30.02 in 10.0 mi Calm Calm - N/A   Scattered Clouds
1:35 PM 98.6 °F 101.0 °F 64.4 °F 32% 30.00 in 10.0 mi SSW 8.1 mph - N/A   Partly Cloudy
1:55 PM 98.6 °F 101.0 °F 64.4 °F 32% 30.00 in 10.0 mi South 6.9 mph - N/A   Clear
2:15 PM 98.6 °F 100.0 °F 62.6 °F 30% 29.99 in 10.0 mi SSE 4.6 mph - N/A   Clear
2:35 PM 98.6 °F 100.0 °F 62.6 °F 30% 29.98 in 10.0 mi SSE 8.1 mph - N/A   Clear
3:15 PM 100.4 °F 102.4 °F 62.6 °F 29% 29.97 in 10.0 mi SSW 6.9 mph - N/A   Clear
3:55 PM 102.2 °F 104.2 °F 62.6 °F 27% 29.94 in 10.0 mi South 10.4 mph - N/A   Clear
4:35 PM 102.2 °F 103.6 °F 60.8 °F 26% 29.92 in 10.0 mi South 10.4 mph - N/A   Clear
4:55 PM 102.2 °F 103.6 °F 60.8 °F 26% 29.91 in 10.0 mi SE 9.2 mph 18.4 mph N/A   Clear
5:15 PM 100.4 °F 101.3 °F 60.8 °F 27% 29.90 in 10.0 mi SE 5.8 mph - N/A   Clear
5:35 PM 100.4 °F 101.3 °F 60.8 °F 27% 29.90 in 10.0 mi SSW 10.4 mph - N/A   Clear
6:15 PM 100.4 °F 101.3 °F 60.8 °F 27% 29.91 in 10.0 mi SSE 10.4 mph - N/A   Clear
6:35 PM 100.4 °F 102.4 °F 62.6 °F 29% 29.91 in 10.0 mi SE 10.4 mph - N/A   Clear
6:55 PM 98.6 °F 100.0 °F 62.6 °F 30% 29.91 in 10.0 mi South 10.4 mph - N/A   Clear
7:15 PM 96.8 °F 97.1 °F 60.8 °F 30% 29.92 in 10.0 mi SSE 9.2 mph - N/A   Clear
7:35 PM 93.2 °F 93.3 °F 60.8 °F 34% 29.94 in 10.0 mi SSE 6.9 mph - N/A   Clear
7:55 PM 93.2 °F 93.3 °F 60.8 °F 34% 29.94 in 10.0 mi SSE 6.9 mph - N/A   Clear
8:15 PM 91.4 °F 91.4 °F 60.8 °F 36% 29.94 in 10.0 mi SSE 8.1 mph - N/A   Clear
8:35 PM 89.6 °F 89.5 °F 60.8 °F 38% 29.94 in 10.0 mi South 4.6 mph - N/A   Clear
8:55 PM 87.8 °F 87.6 °F 60.8 °F 40% 29.95 in 10.0 mi SE 6.9 mph - N/A   Clear
9:15 PM 87.8 °F 87.6 °F 60.8 °F 40% 29.95 in 10.0 mi SE 6.9 mph - N/A   Clear
9:35 PM 86.0 °F 86.1 °F 60.8 °F 43% 29.96 in 10.0 mi ESE 4.6 mph - N/A   Clear
9:55 PM 84.2 °F 85.0 °F 62.6 °F 48% 29.96 in 10.0 mi North 8.1 mph - N/A   Clear
10:15 PM 87.8 °F 88.5 °F 62.6 °F 43% 29.97 in 10.0 mi NNE 4.6 mph - N/A   Clear
10:35 PM 86.0 °F 87.3 °F 64.4 °F 48% 29.98 in 10.0 mi NNE 8.1 mph - N/A   Clear
10:55 PM 86.0 °F 87.3 °F 64.4 °F 48% 29.98 in 10.0 mi ENE 6.9 mph - N/A   Clear
11:15 PM 84.2 °F 85.6 °F 64.4 °F 51% 29.99 in 10.0 mi NNE 8.1 mph - N/A   Clear
11:35 PM 84.2 °F 85.6 °F 64.4 °F 51% 29.99 in 10.0 mi NE 6.9 mph - N/A   Clear
11:55 PM 84.2 °F 85.6 °F 64.4 °F 51% 30.00 in 10.0 mi NE 6.9 mph - N/A   Clear